FREGAT DEB, 45638

Orbit data source: Space-Track

FREGAT DEB, 45638 is space debris in LEO originally from a launch on Mon, 18 Jul 2011 UTC launched from the Tyuratam Missile And Space Complex (TTMTR). Debris objects in space refer to the collection of defunct objects orbiting the Earth. Examples of debris include non-operational satellites, rocket bodies, and fragments generated from explosions, collisions, or faulty payload assembly.

Loading next visibility...
Identifier
45638, 2011-037AE
Orbit
LEO
Country
Flag of CISCIS
Related business
Manufacturer
Lavochkin
Mission
Spacecraft
Bus & Motor
Unknown
Mass
Unknown
Launch date (UTC)
2011-07-18 (15 years ago)
Launch vehicle
Unknown
Launch site
Tyuratam Missile And Space Complex (TTMTR)
Object type
Payload
Rocket body
Debris
Shape & HBR
Unknown shape, 0.1 m
Radar Cross Section
Small (<0.1 m²)

Expand to show TLE details & history
Last TLE update: 2 days ago

TLE from 2 days ago
0 FREGAT DEB
1 45638U 11037AE  26124.81331823  .00072539  00000-0  44098-2 0  9995
2 45638  51.3935 288.0965 1115883  66.7123 304.7183 13.16548066259680
Epoch: 2026-05-04T19:31Z
TLE epoch observation values (Epoch: 2026-05-04T19:31:10.695Z)
Latitude
0.00005°
Longitude
132.60485°
Altitude
786.975 km
Speed
7.661 km/s
True Right ascension
19h 12m 23s
True Declination
0° 00' 00"
Sunlit
Object was in daylight at epoch
Visualization orbit readout
Latitude
Unknown
Longitude
Unknown
Altitude
Unknown
Speed
Unknown
Apparent Right ascension
Unknown
Apparent Declination
Unknown
Sunlit
N/A
Visualization observer readout
Local Sidereal Time
18:46:17
Azimuth
Unknown
Elevation
Unknown
Doppler factor
Unknown
Orbital elements
Apogee altitude
2,043.893 km
Perigee altitude
352.979 km
Semi-major axis
7,576.573 km
Eccentricity
0.11159
Inclination
51.3935°
RAAN
288.0965°
Arg. of periapsis
66.7123°
True anomaly
293.37938°
Mean anomaly
304.7183°
Eccentric anomaly
299.13363°
Mean motion
3.29105 °/min
Orbital period
109.39 mins
BSTAR
0.0044098
Loading maneuver chart data...
Computing Atmospheric mass density...
Loading historical data...
Loading historical data...
Loading historical data...
Loading historical data...
Loading historical data...
Loading historical data...
Loading historical data...

Documentation

Showing up to 5 results
|